Weather History for KQIR - January, 2013

Change the Weather History Date:

Monday, January 14, 2013

  Actual Average Record
Temperature  
Mean Temperature 60 °F -  
Max Temperature 66 °F - - ()
Min Temperature 54 °F - - ()
Degree Days  
Heating Degree Days 5    
Growing Degree Days 10 (Base 50)    
Moisture  
Dew Point 43 °F    
Average Humidity 54    
Maximum Humidity 68    
Minimum Humidity 42    
Precipitation  
Precipitation 0.00 in - - ()
Sea Level Pressure  
Sea Level Pressure 30.17 in    
Wind  
Wind Speed 14 mph ()    
Max Wind Speed 23 mph    
Max Gust Speed -    
Visibility 6.2 miles    
Events      
T = Trace of Precipitation, MM = Missing Value Source: Averaged Metar Reports

Daily Weather History Graph

Daily Weather History Graph

Search for Another Location

Airport or City:

Trip Planner

Search our weather history database for the weather conditions in past years. The results will help you decide how hot, cold, wet, or windy it might be!

Date:

Astronomy

Jan. 14, 2013 Rise Set
Actual Time 6:21 AM AST 5:05 PM AST
Civil Twilight 5:57 AM AST 5:30 PM AST
Nautical Twilight 5:29 AM AST 5:58 PM AST
Astronomical Twilight 5:01 AM AST 6:26 PM AST
Moon 8:03 AM AST (1/14) 8:00 PM AST (1/14)
Length of Visible Light 11h 33m
Length of Day
10h 43m
Waxing Crescent, 9% of the Moon is Illuminated
Jan 14
Waxing Crescent
Jan 19
First Quarter
Jan 27
Full
Feb 3
Last Quarter
Feb 10
New

Hourly Weather History & Observations

Time (AST) Temp. Dew Point Humidity Pressure Visibility Wind Dir Wind Speed Gust Speed Precip Events Conditions
12:55 AM 55.4 °F 45.1 °F 68% 30.17 in 6.2 mi WNW 11.5 mph - N/A   Scattered Clouds
1:55 AM 57.4 °F 43.0 °F 59% 30.17 in 6.2 mi NW 12.7 mph - N/A   Overcast
2:55 AM 57.6 °F 38.1 °F 48% 30.16 in 6.2 mi NW 16.1 mph - N/A   Overcast
3:55 AM 57.4 °F 37.0 °F 47% 30.16 in 6.2 mi NW 15.0 mph - N/A   Overcast
4:55 AM 56.5 °F 33.4 °F 42% 30.17 in 6.2 mi NW 15.0 mph - N/A   Overcast
5:55 AM 54.9 °F 34.5 °F 46% 30.19 in 6.2 mi NW 16.1 mph - N/A   Clear
6:55 AM 54.7 °F 37.0 °F 51% 30.20 in 6.2 mi NW 16.1 mph - N/A   Clear
7:55 AM 56.1 °F 40.5 °F 56% 30.22 in 6.2 mi WNW 15.0 mph - N/A   Clear
8:55 AM 59.7 °F 43.7 °F 55% 30.23 in 6.2 mi NW 20.7 mph - N/A   Partly Cloudy
9:55 AM 62.8 °F 45.7 °F 54% 30.21 in 6.2 mi NW 19.6 mph - N/A   Clear
10:55 AM 64.9 °F 46.8 °F 52% 30.19 in 6.2 mi NW 18.4 mph - N/A   Clear
11:55 AM 66.4 °F 45.0 °F 46% 30.16 in 6.2 mi NW 19.6 mph - N/A   Partly Cloudy
12:55 PM 66.9 °F 42.8 °F 42% 30.13 in 6.2 mi NW 23.0 mph - N/A   Partly Cloudy
1:55 PM 66.6 °F 45.3 °F 46% 30.12 in 6.2 mi NW 20.7 mph - N/A   Partly Cloudy
2:55 PM 66.7 °F 45.3 °F 46% 30.12 in 6.2 mi NNW 23.0 mph - N/A   Clear
3:55 PM 64.9 °F 45.3 °F 49% 30.13 in 6.2 mi NNW 20.7 mph - N/A   Clear
4:55 PM 62.8 °F 45.9 °F 54% 30.14 in 6.2 mi NNW 21.9 mph - N/A   Clear
5:55 PM 61.2 °F 46.6 °F 59% 30.16 in 6.2 mi NNW 16.1 mph - N/A   Clear
6:55 PM 59.9 °F 46.9 °F 62% 30.17 in 6.2 mi NNW 15.0 mph - N/A   Clear
7:55 PM 58.6 °F 46.8 °F 65% 30.17 in 6.2 mi NW 12.7 mph - N/A   Clear
8:55 PM 57.7 °F 46.8 °F 67% 30.17 in 6.2 mi NW 13.8 mph - N/A   Clear
9:55 PM 57.2 °F 44.2 °F 62% 30.17 in 6.2 mi NW 16.1 mph - N/A   Clear
10:55 PM 56.1 °F 43.9 °F 64% 30.16 in 6.2 mi WNW 12.7 mph - N/A   Clear
11:55 PM 55.4 °F 43.3 °F 64% 30.15 in 6.2 mi WNW 15.0 mph - N/A   Clear